GSHBU EFOU-EGCC

Flight info

Callsign GSHBU
Flight time N/A
Altitude 40000
Route IXONO DCT LENSO DCT ETOMI DCT INREX P600 LAPOT DCT ODMIX DCT ROBEM DCT TILNI
Aircraft CL60/M-SADE3FGHIJ3J4J7P2RWXY/HB1D1

Departure

Time 2026-04-27 18:35
Airport Oulu Airport (EFOU)

Arrival

Time N/A
Airport Manchester Airport (EGCC)
Time Latitude Longitude Altitude Speed Heading
2026-04-27 17:41 64.93211 25.36760 40 ft 0 kts 150°
2026-04-27 18:28 64.93206 25.36767 40 ft 6 kts 150°
2026-04-27 18:29 64.93171 25.36690 40 ft 17 kts 247°
2026-04-27 18:29 64.93115 25.36458 40 ft 17 kts 240°
2026-04-27 18:29 64.93050 25.36185 40 ft 19 kts 239°
2026-04-27 18:29 64.93009 25.36204 40 ft 9 kts 115°
2026-04-27 18:30 64.92951 25.36425 40 ft 25 kts 120°
2026-04-27 18:30 64.92857 25.36794 40 ft 27 kts 120°
2026-04-27 18:30 64.92754 25.37194 40 ft 29 kts 121°
2026-04-27 18:30 64.92688 25.37454 40 ft 18 kts 119°
2026-04-27 18:31 64.92616 25.37739 37 ft 19 kts 120°
2026-04-27 18:31 64.92548 25.37927 37 ft 12 kts 168°
2026-04-27 18:31 64.92521 25.37923 37 ft 0 kts 202°
2026-04-27 18:33 64.92508 25.37909 36 ft 14 kts 212°
2026-04-27 18:34 64.92467 25.37620 37 ft 20 kts 275°
2026-04-27 18:34 64.92487 25.37488 40 ft 0 kts 302°
2026-04-27 18:35 64.92584 25.37108 40 ft 68 kts 302°
2026-04-27 18:35 64.92996 25.35479 66 ft 154 kts 302°
2026-04-27 18:35 64.93572 25.33151 784 ft 173 kts 304°
2026-04-27 18:36 64.94080 25.30629 1728 ft 177 kts 301°
2026-04-27 18:36 64.94450 25.27746 2481 ft 196 kts 288°
2026-04-27 18:36 64.94685 25.24651 3434 ft 195 kts 291°
2026-04-27 18:36 64.94763 25.21343 4137 ft 217 kts 269°
2026-04-27 18:37 64.94072 25.17969 4653 ft 251 kts 227°
2026-04-27 18:37 64.92567 25.15580 5197 ft 273 kts 211°
2026-04-27 18:37 64.90888 25.13270 5808 ft 288 kts 212°
2026-04-27 18:37 64.89147 25.10840 6649 ft 293 kts 212°
2026-04-27 18:38 64.87421 25.08388 7538 ft 296 kts 212°
2026-04-27 18:38 64.85632 25.05842 8364 ft 301 kts 212°
2026-04-27 18:38 64.83842 25.03297 9207 ft 303 kts 212°
2026-04-27 18:38 64.82038 25.00735 9997 ft 306 kts 212°
2026-04-27 18:39 64.80229 24.98167 10739 ft 309 kts 212°
2026-04-27 18:39 64.78376 24.95540 11480 ft 311 kts 213°
2026-04-27 18:39 64.76500 24.92881 11915 ft 323 kts 213°
2026-04-27 18:39 64.74518 24.90073 11915 ft 344 kts 213°
2026-04-27 18:40 64.72444 24.87141 11923 ft 358 kts 213°
2026-04-27 18:40 64.70272 24.84078 11991 ft 366 kts 213°
2026-04-27 18:40 64.68085 24.80998 12143 ft 369 kts 213°